Theta_e
310 309 306 310 319 321 323 325 323 322 324 325 328 339 340 343 350 353 354 357 362 365 366 366 366 364 363 362 362 362 362 361
306 305 312 314 319 323 321 323 324 324 320 328 335 337 345 345 348 352 352 355 361 364 365 365 366 364 363 363 362 362 362 361
306 307 312 317 322 321 318 321 321 323 320 325 336 342 345 345 347 347 350 358 359 363 364 365 365 364 363 363 362 362 362 362
302 306 312 316 318 320 319 320 321 319 320 326 337 340 344 346 348 348 353 359 357 362 363 363 364 364 363 362 362 362 361 361
304 304 307 312 318 315 316 318 318 322 317 325 332 341 344 345 347 349 354 359 356 356 361 363 363 362 362 362 361 361 361 361
303 304 304 313 315 317 315 315 321 320 314 316 324 332 343 344 344 346 348 357 354 354 354 357 360 362 361 361 361 360 360 360
301 302 306 312 310 316 319 316 317 317 318 322 324 328 333 339 340 342 344 355 352 349 351 352 354 359 360 361 361 360 360 359
307 308 307 309 310 311 310 312 312 314 318 321 323 323 327 333 335 338 341 348 352 350 350 349 347 356 357 358 358 358 357 357
308 310 310 309 308 311 309 307 310 311 315 318 320 324 324 328 334 338 341 343 353 355 354 350 348 354 350 351 353 355 357 357
308 310 309 308 310 308 309 309 313 313 314 315 316 319 321 324 330 336 338 344 347 357 359 357 352 353 351 346 347 347 349 355
309 309 309 309 307 307 308 311 312 313 314 313 315 317 321 325 327 328 336 346 347 348 356 357 362 354 353 347 345 345 347 352
308 308 308 306 306 307 308 312 312 312 312 313 314 315 319 325 326 335 339 347 349 342 346 364 359 362 359 351 349 347 348 351
306 307 306 308 303 304 309 311 310 311 313 313 315 316 318 322 328 332 343 347 349 343 337 352 361 362 364 358 349 346 347 351
304 306 307 306 298 306 311 310 309 310 311 313 315 317 321 323 329 340 340 340 351 348 355 361 364 364 362 362 359 355 350 352
301 307 306 305 300 307 310 310 309 310 311 312 314 318 322 324 329 344 341 343 344 351 351 362 364 363 363 362 361 360 358 353
299 305 305 303 302 305 308 309 309 310 311 312 313 316 321 324 326 333 333 339 340 342 350 365 364 363 362 361 359 358 357 355
303 306 303 302 302 305 308 308 308 310 311 313 314 317 322 324 328 331 331 334 341 343 346 351 358 356 357 355 356 356 357 358
302 304 303 302 301 305 307 308 309 310 311 313 315 316 318 323 328 330 333 337 338 340 350 347 345 357 357 356 353 356 356 356
298 302 304 302 299 302 306 308 310 311 313 314 314 315 319 321 327 329 332 333 336 343 345 351 347 343 346 354 352 349 350 353
300 298 293 302 292 301 305 306 309 310 311 312 313 316 318 320 325 326 327 331 337 342 345 342 348 346 344 340 343 344 347 350
Wind_Speed
7 12 14 16 12 7 8 5 3 4 3 7 10 11 9 15 19 20 16 14 14 16 16 17 17 16 14 13 14 14 14 13
10 17 20 21 7 9 4 4 3 8 1 8 11 8 13 14 18 18 18 16 16 15 15 16 16 16 16 15 13 14 13 13
15 17 21 11 2 9 8 3 0 4 9 13 10 9 15 11 13 15 18 18 16 14 14 15 16 15 15 16 15 14 14 14
13 18 19 10 7 1 8 15 1 1 7 13 11 10 13 12 11 14 18 16 15 15 14 14 14 14 14 14 16 16 15 14
18 17 21 22 7 10 9 12 3 9 0 8 13 9 10 10 9 14 18 16 13 14 12 13 14 14 14 14 14 14 15 14
18 17 22 18 17 11 7 14 10 5 4 7 8 2 5 9 10 14 13 17 14 12 13 11 11 13 13 14 14 14 14 15
20 18 17 18 10 14 6 11 6 1 9 7 6 5 9 10 12 13 12 15 15 16 13 12 12 12 13 15 14 14 14 15
14 20 16 17 14 13 2 16 8 12 12 12 3 8 10 11 9 11 15 17 16 15 15 14 11 13 11 11 9 9 10 11
18 17 6 9 12 4 8 11 9 14 14 16 13 12 8 13 13 14 13 13 19 14 12 13 10 9 6 6 7 8 10 10
22 10 2 12 11 11 11 15 16 13 16 10 11 8 7 12 12 14 11 8 12 4 12 7 7 9 9 8 8 7 9 10
17 18 9 10 14 16 16 15 11 12 13 9 9 11 13 7 9 8 9 9 8 18 10 5 7 7 9 9 9 10 10 11
18 14 12 15 17 16 16 15 15 13 14 10 12 12 10 6 7 4 4 8 10 14 13 10 8 6 4 8 7 9 9 10
16 20 16 16 19 19 16 17 15 16 15 15 15 15 14 10 8 7 1 12 13 10 8 10 9 8 4 4 7 7 8 10
18 20 20 18 18 18 20 21 18 13 13 13 13 12 8 8 6 3 4 6 10 18 23 20 12 7 5 5 4 6 7 7
22 21 22 21 20 15 20 6 13 12 12 14 14 9 8 7 4 2 2 3 2 5 7 14 12 9 8 8 6 5 6 7
17 13 13 14 13 15 14 12 12 12 13 12 11 12 11 9 7 5 5 8 7 5 7 6 9 8 7 8 8 8 7 7
14 13 15 18 14 14 12 14 15 16 16 15 13 13 7 7 6 6 6 5 3 4 7 4 5 7 7 9 9 10 10 13
17 19 16 16 16 15 18 19 17 16 13 13 14 13 11 8 7 7 8 8 6 5 4 4 4 5 4 7 10 9 9 10
19 19 19 17 16 16 20 19 18 17 14 13 12 11 11 10 7 7 6 5 1 3 5 4 6 5 5 7 7 6 9 13
19 17 14 17 15 18 20 20 22 21 19 16 13 11 9 9 7 7 5 5 4 4 2 3 5 4 8 6 8 10 9 6
Wind_Direction
244 242 245 261 44 26 340 298 271 255 36 352 55 100 89 120 123 125 137 152 133 138 140 142 145 147 146 149 150 148 144 140
261 261 250 257 325 248 284 207 6 338 40 96 56 42 109 134 134 137 141 148 138 137 138 140 144 148 151 153 155 150 146 141
250 244 264 282 152 38 294 307 333 98 274 96 80 84 110 136 139 149 142 125 141 136 140 144 147 151 156 156 154 154 150 146
250 247 255 269 300 131 267 301 166 242 274 103 128 129 133 145 148 145 119 135 146 144 144 147 149 155 156 160 155 156 153 148
245 257 276 288 184 254 245 272 278 27 158 114 96 85 126 142 151 130 135 135 152 159 154 149 151 154 157 158 157 156 150 145
245 253 251 250 276 233 225 265 88 58 260 83 74 72 148 165 166 143 153 137 152 163 168 168 165 159 161 161 159 154 152 151
250 258 266 261 263 250 206 262 306 293 235 130 101 195 230 210 169 163 162 138 155 173 174 181 170 172 165 166 163 160 159 160
246 248 264 260 266 279 221 249 238 268 268 283 232 240 231 206 191 189 164 162 158 177 172 184 182 160 177 178 181 185 183 172
243 256 268 308 280 275 297 263 262 265 245 239 237 226 239 242 220 191 198 181 158 166 163 186 205 149 174 182 186 188 196 177
272 277 230 266 255 268 241 257 260 253 273 302 321 315 248 252 240 210 210 143 85 80 147 200 200 161 172 191 184 186 196 187
246 265 252 257 254 254 246 239 240 254 274 256 275 288 294 331 340 9 22 98 78 94 318 182 267 176 172 196 181 187 186 189
270 249 255 248 250 248 248 251 250 231 236 214 240 237 252 275 293 313 95 133 139 147 175 204 221 255 187 185 182 183 187 188
245 255 235 243 246 247 253 258 224 239 232 237 244 229 217 209 227 257 226 147 148 170 231 208 206 231 231 194 212 191 191 186
247 235 232 236 253 250 238 227 221 236 233 254 236 252 243 240 234 266 13 359 169 185 184 188 194 192 237 234 216 222 201 179
245 248 224 214 242 253 247 304 197 225 237 246 244 218 253 271 278 305 283 344 294 18 317 178 182 183 207 221 227 221 226 199
262 241 192 233 246 243 270 199 232 232 255 257 245 237 215 205 239 240 64 48 9 346 322 325 174 187 206 210 222 227 217 216
291 236 197 213 228 250 265 262 217 216 216 226 227 249 226 221 221 178 128 130 211 247 282 307 292 187 218 226 212 217 225 213
283 292 290 280 267 256 256 259 261 258 242 242 230 221 232 227 198 175 171 180 183 214 230 250 268 272 243 213 220 211 214 220
273 281 282 274 261 268 262 256 259 262 257 238 257 245 225 216 205 173 160 141 185 246 218 228 222 287 296 256 260 264 230 199
260 266 266 266 271 255 251 241 229 230 229 233 230 255 251 237 83 70 38 14 356 310 256 225 244 258 266 275 263 248 253 239